Weather History for KBTM - October, 2013

Change the Weather History Date:

Thursday, October 31, 2013

  Actual Average Record
Temperature  
Mean Temperature 35 °F 35 °F  
Max Temperature 41 °F 48 °F 66 °F (2008)
Min Temperature 29 °F 23 °F -11 °F (2002)
Degree Days  
Heating Degree Days 30 30  
Month to date heating degree days 867 749  
Since 1 July heating degree days 1242 1371  
Cooling Degree Days 0 0  
Month to date cooling degree days 0 0  
Year to date cooling degree days 104 81  
Moisture  
Dew Point 28 °F    
Average Humidity 78    
Maximum Humidity 96    
Minimum Humidity 59    
Precipitation  
Precipitation 0.01 in 0.02 in 0.67 in (1973)
Month to date precipitation 0.62 0.78  
Year to date precipitation 10.90 11.66  
Snow  
Snow 0.00 in - - ()
Month to date snowfall  
Year to date snowfall  
Since 1 July snowfall  
Snow Depth -    
Sea Level Pressure  
Sea Level Pressure 30.02 in    
Wind  
Wind Speed 6 mph (NW)    
Max Wind Speed 17 mph    
Max Gust Speed 24 mph    
Visibility 10 miles    
Events Rain , Snow    
T = Trace of Precipitation, MM = Missing Value Source: NWS Daily Summary

Daily Weather History Graph

Daily Weather History Graph

Search for Another Location

Airport or City:

Trip Planner

Search our weather history database for the weather conditions in past years. The results will help you decide how hot, cold, wet, or windy it might be!

Date:

Astronomy

Oct. 31, 2013 Rise Set
Actual Time 8:09 AM MDT 6:17 PM MDT
Civil Twilight 7:38 AM MDT 6:48 PM MDT
Nautical Twilight 7:03 AM MDT 7:23 PM MDT
Astronomical Twilight 6:28 AM MDT 7:58 PM MDT
Moon 4:53 AM MDT (10/31) 4:44 PM MDT (10/31)
Length of Visible Light 11h 09m
Length of Day
10h 07m
Waning Crescent, 9% of the Moon is Illuminated
Oct 31
Waning Crescent
Nov 3
New
Nov 9
First Quarter
Nov 17
Full
Nov 25
Last Quarter

Hourly Weather History & Observations

Time (MDT) Temp. Windchill Dew Point Humidity Pressure Visibility Wind Dir Wind Speed Gust Speed Precip Events Conditions
12:53 AM 33.1 °F - 25.0 °F 72% 30.03 in 10.0 mi Calm Calm - N/A   Overcast
1:53 AM 34.0 °F - 24.1 °F 67% 30.00 in 10.0 mi Calm Calm - N/A   Overcast
2:53 AM 33.1 °F 28.7 °F 25.0 °F 72% 30.00 in 10.0 mi NW 4.6 mph - N/A   Overcast
3:53 AM 32.0 °F 27.5 °F 24.1 °F 73% 30.00 in 10.0 mi North 4.6 mph - N/A   Overcast
4:53 AM 30.9 °F - 23.0 °F 72% 30.00 in 10.0 mi Calm Calm - N/A   Scattered Clouds
5:53 AM 30.9 °F 26.2 °F 23.0 °F 72% 30.02 in 10.0 mi North 4.6 mph - N/A   Overcast
6:53 AM 32.0 °F 26.4 °F 24.1 °F 73% 30.04 in 10.0 mi WNW 5.8 mph - N/A   Overcast
7:53 AM 33.1 °F - 25.0 °F 72% 30.03 in 10.0 mi Calm Calm - N/A   Overcast
8:53 AM 33.1 °F 28.7 °F 26.1 °F 75% 30.03 in 10.0 mi East 4.6 mph - N/A   Overcast
9:53 AM 35.1 °F - 26.1 °F 70% 30.04 in 10.0 mi Calm Calm - N/A   Overcast
10:53 AM 37.0 °F 32.4 °F 25.0 °F 62% 29.99 in 10.0 mi NNE 5.8 mph - N/A   Overcast
11:53 AM 37.9 °F 33.5 °F 26.1 °F 62% 29.99 in 10.0 mi North 5.8 mph - N/A   Overcast
12:53 PM 39.9 °F 35.8 °F 28.0 °F 63% 29.97 in 10.0 mi NNW 5.8 mph - 0.00 in   Overcast
1:53 PM 37.9 °F 32.7 °F 30.9 °F 76% 29.96 in 10.0 mi NNW 6.9 mph - 0.00 in   Overcast
2:53 PM 39.9 °F 32.9 °F 30.0 °F 68% 29.96 in 10.0 mi NW 11.5 mph - N/A   Overcast
3:53 PM 37.9 °F 29.6 °F 30.9 °F 76% 30.01 in 10.0 mi NNW 13.8 mph - N/A   Overcast
4:26 PM 37.4 °F 32.8 °F 32.0 °F 81% 29.97 in 10.0 mi NW 5.8 mph - 0.00 in Rain Light Rain
4:53 PM 36.0 °F 29.0 °F 30.9 °F 82% 30.03 in 10.0 mi NW 9.2 mph - 0.01 in Rain Light Rain
5:48 PM 35.6 °F 30.7 °F 32.0 °F 87% 29.99 in 10.0 mi NW 5.8 mph - 0.00 in   Overcast
5:53 PM 35.1 °F 29.3 °F 32.0 °F 89% 30.06 in 10.0 mi NW 6.9 mph - 0.00 in   Overcast
6:07 PM 35.6 °F 29.2 °F 32.0 °F 87% 30.00 in 10.0 mi NW 8.1 mph - N/A   Overcast
6:35 PM 35.6 °F 29.2 °F 32.0 °F 87% 30.00 in 9.0 mi NNW 8.1 mph - 0.00 in Snow Light Snow
6:53 PM 34.0 °F 28.8 °F 32.0 °F 92% 30.07 in 10.0 mi NW 5.8 mph - 0.00 in   Overcast
7:53 PM 35.1 °F 29.3 °F 30.9 °F 85% 30.07 in 10.0 mi NNW 6.9 mph - 0.00 in   Mostly Cloudy
8:53 PM 37.0 °F 28.9 °F 28.0 °F 70% 30.09 in 10.0 mi NW 12.7 mph - N/A   Overcast
9:53 PM 37.0 °F 29.3 °F 27.0 °F 67% 30.10 in 10.0 mi WNW 11.5 mph 20.7 mph N/A   Overcast
10:53 PM 37.0 °F 31.0 °F 27.0 °F 67% 30.11 in 10.0 mi WNW 8.1 mph - N/A   Overcast
11:53 PM 37.0 °F 32.4 °F 26.1 °F 65% 30.11 in 10.0 mi WNW 5.8 mph - N/A   Overcast